Location: Mat�lon
(46.2791°N, 7.1028°E)
Time: 11:13:21
(UTC+00:00)

Lacrosse 4 Rocket - Pass Details

Date: 18 September 2020
Orbit: 543 x 615 km, 68.0° (Epoch: 24 October)

Event Time Altitude Azimuth Distance (km) Brightness Sun altitude
Rises 20:58:52 0° 335° (NNW) 2,716 5.8 -32.4°
Reaches altitude 10° 21:01:15 10° 345° (NNW) 1,823 4.6 -32.7°
Enters shadow 21:02:06 15° 352° (N) 1,529 4.1 -32.8°
